Port Hope, MI

4:26 AM EST on November 18, 2017 (GMT -0500)
Port Hope

Weather History for KP58 - December, 2012

Change the Weather History Date:

Thursday, December 13, 2012

  Actual Average Record
Temperature  
Mean Temperature 39 °F -  
Max Temperature 45 °F 34 °F 57 °F (2015)
Min Temperature 33 °F 25 °F 10 °F (2000)
Degree Days  
Heating Degree Days 26    
Moisture  
Dew Point 24 °F    
Average Humidity 58    
Maximum Humidity 70    
Minimum Humidity 44    
Precipitation  
Precipitation 0.00 in - - ()
Sea Level Pressure  
Sea Level Pressure 30.23 in    
Wind  
Wind Speed 8 mph (SSW)    
Max Wind Speed 12 mph    
Max Gust Speed 20 mph    
Averages and records for this station are not official NWS values.
T = Trace of Precipitation, MM = Missing Value Source: NWS Daily Summary

Daily Weather History Graph

Daily Weather History Graph

Search for Another Location

Airport or City:

Trip Planner

Search our weather history database for the weather conditions in past years. The results will help you decide how hot, cold, wet, or windy it might be!

Date:

Astronomy

Dec. 13, 2012 Rise Set
Actual Time 7:57 AM EST 4:53 PM EST
Civil Twilight 7:24 AM EST 5:26 PM EST
Nautical Twilight 6:48 AM EST 6:02 PM EST
Astronomical Twilight 6:13 AM EST 6:37 PM EST
Moon 8:04 AM EST (12/13) 5:35 PM EST (12/13)
Length of Visible Light 10h 01m
Length of Day
8h 55m
New Moon, 0% of the Moon is Illuminated
Dec 13
New Moon
Dec 20
First Quarter
Dec 28
Full
Jan 4
Last Quarter
Jan 11
New

Hourly Weather History & Observations

Time (EST) Temp. Windchill Dew Point Humidity Pressure Visibility Wind Dir Wind Speed Gust Speed Precip Events Conditions
12:51 AM 34.0 °F 28.0 °F 24.1 °F 67% 30.32 in - SW 6.9 mph - N/A   Unknown
1:51 AM 33.1 °F 26.9 °F 24.1 °F 70% 30.33 in - SSW 6.9 mph - N/A   Unknown
2:51 AM 33.1 °F 24.9 °F 24.1 °F 70% 30.34 in - SSW 10.4 mph 17.3 mph N/A   Unknown
3:51 AM 33.1 °F 26.9 °F 23.0 °F 66% 30.31 in - Variable 6.9 mph 16.1 mph N/A   Unknown
4:51 AM 34.0 °F 27.2 °F 24.1 °F 67% 30.30 in - SW 8.1 mph - N/A   Unknown
5:51 AM 33.1 °F 25.5 °F 23.0 °F 66% 30.31 in - SW 9.2 mph 17.3 mph N/A   Unknown
6:51 AM 33.1 °F 26.9 °F 23.0 °F 66% 30.31 in - Variable 6.9 mph - N/A   Unknown
7:51 AM 33.1 °F 26.1 °F 23.0 °F 66% 30.30 in - SSW 8.1 mph - N/A   Unknown
8:51 AM 34.0 °F 26.0 °F 23.0 °F 64% 30.30 in - SSW 10.4 mph 18.4 mph N/A   Unknown
9:51 AM 36.0 °F 28.0 °F 23.0 °F 59% 30.29 in - SW 11.5 mph 19.6 mph N/A   Unknown
10:51 AM 39.0 °F 32.8 °F 24.1 °F 55% 30.27 in - SSW 9.2 mph 19.6 mph N/A   Unknown
11:51 AM 41.0 °F 35.8 °F 25.0 °F 53% 30.25 in - SSW 8.1 mph - N/A   Unknown
12:51 PM 43.0 °F 38.2 °F 25.0 °F 49% 30.22 in - SSW 8.1 mph 17.3 mph N/A   Unknown
1:51 PM 45.0 °F 40.6 °F 25.0 °F 46% 30.19 in - South 8.1 mph - N/A   Unknown
2:51 PM 45.0 °F 41.2 °F 24.1 °F 44% 30.17 in - SSW 6.9 mph 16.1 mph N/A   Unknown
3:51 PM 44.1 °F 40.8 °F 24.1 °F 45% 30.16 in - Variable 5.8 mph - N/A   Unknown
4:51 PM 41.0 °F 37.1 °F 27.0 °F 57% 30.15 in - South 5.8 mph - N/A   Unknown
5:51 PM 39.9 °F 34.5 °F 26.1 °F 58% 30.13 in - South 8.1 mph - N/A   Unknown
7:51 PM 39.0 °F 34.8 °F 23.0 °F 53% 30.10 in - Variable 5.8 mph - N/A   Unknown
8:51 PM 37.9 °F 32.1 °F 24.1 °F 57% 30.11 in - SSW 8.1 mph - N/A   Unknown
9:51 PM 37.0 °F 31.6 °F 23.0 °F 57% 30.11 in - SSW 6.9 mph - N/A   Unknown
10:51 PM 37.9 °F 32.1 °F 23.0 °F 55% 30.12 in - SW 8.1 mph - N/A   Unknown
11:51 PM 39.0 °F 32.8 °F 23.0 °F 53% 30.10 in - SW 9.2 mph 17.3 mph N/A   Unknown